Location: Unspecified
(0.0000°N, 0.0000°E)
Time: 18:56:23
(UTC+00:00)

S-56A Canister/Altair - Pass Details

Date: 23 November 2019
Orbit: 633 x 2500 km, 38.9° (Epoch: 08 December)

Event Time Altitude Azimuth Distance (km) Brightness Sun altitude
Rises 12:49:29 0° 238° (WSW) 6,074 12.4 64.5°
Reaches altitude 10° 12:53:28 10° 242° (WSW) 5,136 12.3 63.9°
Maximum altitude 13:08:15 58° 317° (NW) 2,669 11.1 61.4°
Drops below altitude 10° 13:20:44 10° 34° (NNE) 4,381 11.2 59.2°
Sets 13:23:53 0° 38° (NE) 5,158 11.4 58.6°
